AISSAT 1 (36797 NORAD) Tracking and Keplerian Element Data

This shows tracking and keplerian element data for the satellite.

Feedback or suggestion? Click here.




ElementValue
Catalog36797
NameAISSAT 1
Epoch Orbit77267
Epoch Day286.59742429
Epoch Year2024
RAAN152.4856
Inclination98.1672
Eccentricity0.0008342
Argument of Perigee285.2729
Mean Anonmoly74.7566
Mean Motion14.92508128
Decay Rate7.865E-05
L11 36797U 10035C 24286.59742429 .00007865 00000+0 77107-3 0 9995
L22 36797 98.1672 152.4856 0008342 285.2729 74.7566 14.92508128772674



Live tracking and technical data element details for AISSAT 1 (NORAD 36797). AISSAT 1 can be tracked NOW for your location showing map with azimuth and elevation plus other details from your city location.







IsCatalogInMostPopularTable: catalog: 36797, numindb: 25262
Update: records affected: 1



GetName: 36797 AISSAT 1

Hit Count: updated at: Mon, 13 Jan 2025 20:56:06 GMT